Weather History for Cocoa Beach, FL

Change the Weather History Date:

Sunday, October 6, 2013

  Actual Average (KCOF) Record (KCOF)
Temperature  
Mean Temperature 80 °F -  
Max Temperature 87 °F 82 °F 91 °F (2001)
Min Temperature 73 °F 73 °F 69 °F (2010)
Cooling Degree Days 14    
Growing Degree Days 30 (Base 50)    
Moisture  
Dew Point 72 °F    
Average Humidity 77    
Maximum Humidity 94    
Minimum Humidity 60    
Precipitation  
Precipitation 0.02 in - - ()
Sea Level Pressure  
Sea Level Pressure 29.94 in    
Wind  
Wind Speed 6 mph (SE)    
Max Wind Speed 10 mph    
Max Gust Speed -    
Visibility 10 miles    
Events Rain    
Averages and records for this station are not official NWS values.
T = Trace of Precipitation, MM = Missing Value Source: NWS Daily Summary

Daily Weather History Graph

Daily Weather History Graph

Search for Another Location

Airport:

Trip Planner

Search our weather history database for the weather conditions in past years. The results will help you decide how hot, cold, wet, or windy it might be!

Date:

Astronomy

Oct. 06, 2013 Rise Set
Actual Time 7:18 AM EDT 7:02 PM EDT
Civil Twilight 6:54 AM EDT 7:25 PM EDT
Nautical Twilight 6:27 AM EDT 7:52 PM EDT
Astronomical Twilight 5:59 AM EDT 8:20 PM EDT
Moon 8:50 AM EDT (10/6) 8:12 PM EDT (10/6)
Length of Visible Light 12h 31m
Length of Day
11h 44m
Waxing Crescent, 3% of the Moon is Illuminated
Oct 6
Waxing Crescent
Oct 11
First Quarter
Oct 18
Full
Oct 26
Last Quarter
Nov 3
New

Hourly Weather History & Observations

Time (EDT) Temp. Heat Index Dew Point Humidity Pressure Visibility Wind Dir Wind Speed Gust Speed Precip Events Conditions
12:58 AM 77.9 °F - 71.8 °F 81% 29.99 in 10.0 mi ESE 5.8 mph - N/A   Clear
1:58 AM 78.3 °F - 71.4 °F 79% 29.98 in 10.0 mi SE 5.8 mph - N/A   Clear
2:58 AM 78.6 °F - 70.2 °F 75% 29.96 in 10.0 mi ESE 8.1 mph - N/A   Clear
3:58 AM 77.0 °F - 70.5 °F 80% 29.95 in 10.0 mi SE 4.6 mph - N/A   Clear
4:58 AM 77.0 °F - 70.7 °F 81% 29.93 in 10.0 mi SE 5.8 mph - N/A   Clear
5:58 AM 75.9 °F - 70.3 °F 83% 29.95 in 10.0 mi SE 2.3 mph - N/A   Partly Cloudy
6:58 AM 74.3 °F - 70.0 °F 86% 29.96 in 10.0 mi South 2.3 mph - N/A   Clear
7:53 AM 73.4 °F - 71.6 °F 94% 29.96 in 10.0 mi ESE 10.4 mph - N/A   Light Drizzle
7:58 AM 74.3 °F - 71.6 °F 91% 29.97 in 5.0 mi East 9.2 mph - 0.00 in Rain Light Rain
8:11 AM 77.0 °F - 73.4 °F 89% 29.96 in 10.0 mi East 2.3 mph - N/A   Clear
8:58 AM 81.1 °F 86.0 °F 73.0 °F 76% 29.98 in 10.0 mi SSE 3.5 mph - 0.02 in   Clear
9:58 AM 84.0 °F 90.2 °F 72.7 °F 69% 29.98 in 10.0 mi SSE 6.9 mph - N/A   Clear
10:58 AM 84.7 °F 91.4 °F 73.2 °F 68% 29.99 in 10.0 mi Variable 4.6 mph - N/A   Clear
11:58 AM 85.3 °F 90.8 °F 71.4 °F 63% 29.98 in 10.0 mi Variable 4.6 mph - N/A   Clear
12:58 PM 86.7 °F 92.5 °F 71.4 °F 60% 29.96 in 10.0 mi Variable 6.9 mph - N/A   Clear
1:58 PM 86.9 °F 93.3 °F 72.1 °F 61% 29.94 in 10.0 mi SE 8.1 mph - N/A   Clear
2:58 PM 86.9 °F 95.0 °F 73.9 °F 65% 29.92 in 10.0 mi East 8.1 mph - N/A   Clear
3:58 PM 85.6 °F 94.2 °F 75.0 °F 70% 29.91 in 10.0 mi East 8.1 mph - N/A   Clear
4:58 PM 84.7 °F 91.4 °F 73.0 °F 68% 29.90 in 10.0 mi ESE 9.2 mph - N/A   Clear
5:58 PM 82.9 °F 89.7 °F 74.1 °F 75% 29.90 in 10.0 mi ESE 8.1 mph - N/A   Clear
6:58 PM 79.3 °F - 73.2 °F 81% 29.91 in 10.0 mi SE 5.8 mph - N/A   Partly Cloudy
7:58 PM 78.3 °F - 72.3 °F 82% 29.91 in 10.0 mi East 4.6 mph - N/A   Clear
8:58 PM 77.4 °F - 72.0 °F 83% 29.92 in 10.0 mi ESE 4.6 mph - N/A   Clear
9:58 PM 76.6 °F - 71.8 °F 85% 29.92 in 10.0 mi SE 4.6 mph - N/A   Clear
10:58 PM 76.6 °F - 71.2 °F 83% 29.92 in 10.0 mi SSE 5.8 mph - N/A   Clear
11:58 PM 78.8 °F - 72.7 °F 81% 29.90 in 10.0 mi SE 5.8 mph - N/A   Clear